Location: Caltech
(34.1382°N, 118.1253°W)
Time: 02:48:41
(UTC-07:00)

Cosmos 44 Rocket - Visible Passes

Search period start: 02 July 2015 00:00
Search period end: 12 July 2015 00:00
Orbit: 654 x 738 km, 65.1° (Epoch: 02 July)

Date Brightness Start Highest point End Pass type
(mag) Time Alt. Az. Time Alt. Az. Time Alt. Az.
02 Jul 4.4 21:04:49 10° SSE 21:08:17 22° ESE 21:11:54 10° ENE visible
02 Jul 4.8 22:45:24 10° WSW 22:49:38 33° NW 22:53:55 10° N visible
03 Jul 3.1 21:45:25 10° SSW 21:50:04 88° ESE 21:54:48 10° NNE visible
03 Jul 6.4 23:31:12 10° WNW 23:32:23 11° NW 23:33:19 10° NNW visible
04 Jul 4.0 20:46:46 10° S 20:50:46 30° ESE 20:54:53 10° NE visible
04 Jul 5.4 22:28:24 10° WSW 22:32:19 25° NW 22:36:12 10° N visible
05 Jul 3.5 21:28:00 10° SW 21:32:38 68° WNW 21:37:20 10° NNE visible
06 Jul 3.6 20:28:55 10° S 20:33:15 41° ESE 20:37:42 10° NE visible
06 Jul 6.0 22:11:34 10° W 22:15:01 20° NW 22:18:24 10° N visible
07 Jul 6.5 05:09:57 10° N 05:13:14 18° NE 05:16:43 10° E visible
07 Jul 4.3 21:10:42 10° SW 21:15:13 49° WNW 21:19:48 10° NNE visible
08 Jul 6.5 21:54:58 10° W 21:57:46 15° NW 22:00:25 10° NNW visible
09 Jul 6.2 04:52:04 10° N 04:55:57 23° NE 05:00:01 10° ESE visible
09 Jul 5.0 20:53:31 10° WSW 20:57:50 36° NW 21:02:12 10° NNE visible
10 Jul 6.9 21:38:49 10° WNW 21:40:32 11° NW 21:42:02 10° NNW visible
11 Jul 5.5 04:34:19 10° N 04:38:39 30° NE 04:43:07 10° ESE visible
11 Jul 5.7 20:36:29 10° WSW 20:40:30 27° NW 20:44:31 10° N visible
